Location: Casalecchio di Reno
(44.4760°N, 11.2757°E)
Time: 16:09:17
(UTC+02:00)

DX 1 - Pass Details

Date: 24 June 2024
Orbit: 607 x 619 km, 98.3° (Epoch: 19 July)

Event Time Altitude Azimuth Distance (km) Brightness Sun altitude
Rises 23:57:21 0° 37° (NE) 2,875 ? -19.7°
Reaches altitude 10° 00:02:08 10° 86° (E) 1,963 ? -20.0°
Maximum altitude 00:02:20 10° 89° (E) 1,960 ? -20.0°
Enters shadow 00:02:20 10° 89° (E) 1,960 ? -20.0°
